EW4964 Weather Reports


time (UTC)temp
C
wind
direction
speed
KPH
gust
KPH
rain 1hr
cm
rain 24hr
cm
rain mn
cm
humidity
%
barometer
mb
20260903013004 13 31 4.8 9.7 0.00 0.00 0.00 41 1018.9
20260903011504 13 1 0.0 1.6 0.00 0.00 0.00 39 1018.7
20260903010004 13 1 0.0 1.6 0.00 0.00 0.00 37 1018.8
20260903004504 13 1 0.0 3.2 0.00 0.00 0.00 37 1018.7
20260903001508 14 1 0.0 1.6 0.00 0.00 0.00 37 1018.6
20260903000008 13 1 0.0 3.2 0.00 0.00 0.00 37 1018.4
20260902233008 13 1 3.2 6.4 0.00 0.00 0.00 37 1018.8
20260902231507 13 1 0.0 3.2 0.00 0.00 0.00 36 1019.1
20260902230008 13 0 0.0 0.0 0.00 0.00 0.00 35 1019.0
20260902224507 14 314 0.0 1.6 0.00 0.00 0.00 35 1019.0
20260902223008 15 315 0.0 3.2 0.00 0.00 0.00 34 1018.8
20260902221507 15 294 1.6 6.4 0.00 0.00 0.00 33 1018.9
20260902220013 15 259 3.2 6.4 0.00 0.00 0.00 34 1019.1
20260902214508 15 248 3.2 6.4 0.00 0.00 0.00 34 1019.0
20260902213008 15 266 1.6 6.4 0.00 0.00 0.00 34 1018.9
20260902211507 15 280 1.6 3.2 0.00 0.00 0.00 35 1019.0
20260902210008 14 46 0.0 3.2 0.00 0.00 0.00 37 1018.9
20260902204507 14 45 0.0 1.6 0.00 0.00 0.00 37 1018.7
20260902203007 14 45 0.0 1.6 0.00 0.00 0.00 37 1018.9
20260902201507 14 45 0.0 1.6 0.00 0.00 0.00 37 1018.8
20260902200007 14 45 0.0 1.6 0.00 0.00 0.00 36 1018.8
20260902194507 14 45 0.0 1.6 0.00 0.00 0.00 36 1018.8
20260902193007 15 45 0.0 1.6 0.00 0.00 0.00 36 1018.7
20260902191507 15 45 0.0 3.2 0.00 0.00 0.00 36 1018.9
20260902190007 15 46 1.6 3.2 0.00 0.00 0.00 35 1018.8
20260902184507 15 45 1.6 3.2 0.00 0.00 0.00 35 1018.7
20260902183007 16 45 1.6 4.8 0.00 0.00 0.00 34 1018.8
20260902181507 16 45 1.6 3.2 0.00 0.00 0.00 31 1018.7
20260902180008 16 45 1.6 3.2 0.00 0.00 0.00 31 1018.8
20260902173007 17 45 1.6 3.2 0.00 0.00 0.00 29 1018.5
20260902171507 18 45 1.6 4.8 0.00 0.00 0.00 28 1018.7
20260902170007 19 45 3.2 4.8 0.00 0.00 0.00 27 1018.6
20260902164506 20 45 3.2 6.4 0.00 0.00 0.00 26 1018.6
20260902163007 21 42 3.2 11.3 0.00 0.00 0.00 25 1018.5
20260902161507 22 351 3.2 6.4 0.00 0.00 0.00 22 1018.6
20260902160009 22 317 3.2 6.4 0.00 0.00 0.00 22 1018.5
20260902154507 22 323 3.2 12.9 0.00 0.00 0.00 22 1018.5
20260902153007 21 261 6.4 11.3 0.00 0.00 0.00 22 1018.6
20260902151506 21 333 4.8 9.7 0.00 0.00 0.00 22 1018.8
20260902150006 20 271 3.2 11.3 0.00 0.00 0.00 25 1018.6
20260902143006 20 324 3.2 6.4 0.00 0.00 0.00 25 1019.0
20260902134506 20 351 3.2 9.7 0.00 0.00 0.00 25 1019.2
20260902133006 20 315 6.4 16.1 0.00 0.00 0.00 24 1019.1
20260902131506 21 290 4.8 11.3 0.00 0.00 0.00 24 1019.0
20260902123007 22 246 6.4 17.7 0.00 0.00 0.00 22 1019.4
20260902121506 21 281 4.8 11.3 0.00 0.00 0.00 22 1019.7
20260902120006 21 317 6.4 11.3 0.00 0.00 0.00 24 1019.6
20260902114506 21 15 6.4 16.1 0.00 0.00 0.00 24 1019.8
20260902113006 21 290 6.4 14.5 0.00 0.00 0.00 24 1019.9
20260902111506 20 274 6.4 12.9 0.00 0.00 0.00 24 1020.1
20260902110008 20 248 8.0 17.7 0.00 0.00 0.00 24 1020.0
20260902104506 20 244 6.4 11.3 0.00 0.00 0.00 24 1020.0
20260902101505 20 330 6.4 16.1 0.00 0.00 0.00 25 1020.0
20260902100006 20 279 8.0 16.1 0.00 0.00 0.00 24 1020.1
20260902094506 20 334 4.8 9.7 0.00 0.00 0.00 26 1020.1
20260902093006 19 302 6.4 17.7 0.00 0.00 0.00 25 1020.1
20260902091505 18 246 8.0 17.7 0.00 0.00 0.00 26 1020.2
20260902090006 18 269 6.4 14.5 0.00 0.00 0.00 27 1020.2
20260902084505 18 255 4.8 12.9 0.00 0.00 0.00 27 1020.3
20260902083006 17 256 8.0 17.7 0.00 0.00 0.00 27 1020.4
20260902081506 17 305 6.4 12.9 0.00 0.00 0.00 29 1020.4
20260902080005 16 333 4.8 9.7 0.00 0.00 0.00 31 1020.2
20260902074505 16 241 4.8 8.0 0.00 0.00 0.00 31 1020.2
20260902073005 16 353 4.8 12.9 0.00 0.00 0.00 31 1020.3
20260902071506 16 265 3.2 8.0 0.00 0.00 0.00 32 1020.1
20260902070007 15 298 3.2 9.7 0.00 0.00 0.00 36 1020.0
20260902064505 15 10 3.2 6.4 0.00 0.00 0.00 37 1020.1
20260902063005 14 334 3.2 6.4 0.00 0.00 0.00 38 1019.9
20260902060006 13 1 1.6 3.2 0.00 0.00 0.00 40 1020.0
20260902054506 13 315 0.0 3.2 0.00 0.00 0.00 41 1019.8
20260902053005 12 323 0.0 1.6 0.00 0.00 0.00 41 1019.8
20260902051505 12 311 0.0 3.2 0.00 0.00 0.00 41 1019.6
20260902050008 12 328 1.6 4.8 0.00 0.00 0.00 42 1019.7
20260902044505 11 306 0.0 3.2 0.00 0.00 0.00 42 1019.8
20260902043005 11 311 1.6 3.2 0.00 0.00 0.00 44 1019.6
20260902040005 11 315 0.0 1.6 0.00 0.00 0.00 44 1019.5
20260902033005 11 306 0.0 3.2 0.00 0.00 0.00 43 1019.6
20260902031504 11 288 0.0 3.2 0.00 0.00 0.00 43 1019.5
20260902030005 11 332 0.0 3.2 0.00 0.00 0.00 41 1019.4
20260902024504 11 333 1.6 3.2 0.00 0.00 0.00 41 1019.5
20260902023005 11 313 0.0 3.2 0.00 0.00 0.00 43 1019.5
20260902021504 11 0 0.0 0.0 0.00 0.00 0.00 42 1019.4
20260902014505 11 270 0.0 1.6 0.00 0.00 0.00 39 1019.6